Location: Fort Collins
(40.5850°N, 105.0840°W)
Time: 23:27:34
(UTC-06:00)

Daily predictions for brighter satellites

Satellite Brightness Start Highest point End
(mag) Time Altitude Azimuth Time Altitude Azimuth Time Altitude Azimuth
Cosmos 1000 Rocket 4.5 19:37:11 10° N 19:43:23 79° E 19:49:35 10° S
Meteor 1-24 Rocket 3.8 19:40:17 10° N 19:45:41 58° ENE 19:51:16 10° SSE
Cosmos 2082 Rocket 3.5 19:45:36 10° N 19:49:58 22° NE 19:54:19 10° ESE
Cosmos 2123 Rocket 4.2 19:47:12 10° N 19:53:24 53° E 19:59:30 10° SSE
ALOS 2.2 19:48:53 10° SSE 19:53:31 69° ENE 19:58:10 10° N
Cosmos 1766 3.2 19:56:04 10° S 19:59:54 64° E 20:03:45 10° NNE
Meteor 2-5 Rocket 4.4 19:54:46 10° NNW 20:00:25 63° W 20:06:10 10° S
COSMOS 2406 4.3 19:58:11 10° NW 20:03:40 48° WSW 20:09:06 10° S
Lacrosse 5 rocket 3.5 20:01:56 10° N 20:03:54 13° NNE 20:05:51 10° NE
USA 215 4.0 19:58:57 10° ENE 20:04:32 29° SE 20:10:03 10° S
Spot 2 Rocket 3.6 20:00:25 10° SSE 20:05:24 57° ENE 20:10:25 10° N
Resurs 1-3 3.7 20:07:12 10° SSE 20:11:29 57° ENE 20:15:48 10° N
Cosmos 1844 4.4 20:06:48 10° SW 20:12:29 59° WNW 20:18:14 10° NNE
RESURS DK-1 2.5 20:12:10 10° NNW 20:16:18 79° WSW 20:20:25 10° SSE
Cosmos 990 Rocket 4.4 20:11:25 10° SSW 20:16:38 67° WNW 20:21:51 10° NNE
Cosmos 1674 3.8 20:18:07 10° NNE 20:21:15 24° ENE 20:22:20 21° ESE
Envisat 3.8 20:20:13 16° ESE 20:23:31 32° ENE 20:27:58 10° N
Cosmos 1408 Rocket 4.3 20:21:15 10° NNE 20:25:16 32° ENE 20:27:36 20° SE
CZ-2D R/B 3.1 20:24:15 10° SSE 20:28:05 76° ENE 20:31:58 10° N
Lacrosse 5 2.3 20:23:10 10° SW 20:28:11 63° NW 20:33:13 10° NE
Cosmos 1125 Rocket 3.5 20:25:53 10° S 20:30:56 55° ESE 20:36:01 10° NNE
Cosmos 1447 Rocket 4.5 20:25:56 10° N 20:31:59 59° E 20:38:01 10° SSE
Meteor 1-21 Rocket 4.4 20:26:59 10° N 20:32:41 55° ENE 20:38:27 10° SSE
SAR-Lupe-4 3.6 20:30:40 18° SSE 20:33:09 57° ENE 20:36:41 10° N
Tiangong 1 2.2 20:30:39 10° W 20:33:19 32° SSW 20:34:26 23° SSE
Cosmos 1805 3.1 20:29:29 10° S 20:33:22 83° E 20:37:17 10° N
Cosmos 1459 Rocket 4.5 20:29:26 10° SSE 20:35:05 37° E 20:40:40 10° NNE
Cosmos 1048 Rocket 4.2 20:30:08 10° N 20:35:06 47° ENE 20:38:01 23° SE
Okean 3 Rocket 3.6 20:32:46 10° N 20:37:11 83° W 20:41:35 10° S
Abrixas 2.6 20:34:54 10° NW 20:37:42 54° NNE 20:38:12 45° ENE
Geosat 3.9 20:32:40 10° NNE 20:37:43 80° ESE 20:42:43 10° SSW
Cosmos 2173 Rocket 4.4 20:34:03 10° SSE 20:39:40 39° E 20:45:23 10° NNE
Timation 1 Rocket 4.2 20:33:53 10° SSW 20:39:51 75° ESE 20:45:53 10° NNE
ERS-1 Rocket 3.9 20:43:25 26° E 20:44:21 27° ENE 20:48:33 10° N
In-Cosmos 22 4.5 20:40:45 10° NNW 20:46:00 64° W 20:51:12 10° S
USA 186 1.3 20:46:32 61° NW 20:46:32 61° NW 20:48:30 10° NNW
Cosmos 1470 3.1 20:47:42 38° ESE 20:48:26 43° E 20:52:12 10° NNE
SeaSat 1 4.0 20:46:30 10° S 20:50:55 33° WSW 20:55:23 10° NW
SAR-Lupe-1 3.9 20:50:22 30° SSE 20:52:03 88° ENE 20:55:38 10° NNW
Meteor 1-29 2.8 20:49:23 10° NNE 20:52:51 69° ESE 20:54:50 23° S
Cosmos 1340 Rocket 3.4 20:49:11 10° N 20:52:47 36° ENE 20:52:47 36° ENE
COSMOS 2487 2.3 20:53:53 10° NNW 20:57:26 65° ENE 20:57:38 63° E
Cosmos 1076 Rocket 3.6 20:54:38 10° NNW 20:58:53 74° W 21:02:04 17° S
Meteor 1-4 Rocket 3.1 20:55:38 10° SSW 20:59:02 55° W 21:02:28 10° N
Cosmos 1833 Rocket 2.6 20:55:04 10° NNW 21:00:41 68° ENE 21:02:59 36° SE
GP-B 3.0 20:56:43 12° S 21:00:50 89° W 21:05:17 10° N
Cosmos 1733 3.1 21:02:27 61° E 21:02:27 61° E 21:06:15 10° NNE
Cosmos 1818 3.6 20:57:33 10° NW 21:03:00 78° WSW 21:05:43 30° SSE
Helios 1B rocket 2.6 20:59:21 10° N 21:03:29 71° WNW 21:07:33 10° SSW
Cosmos 2278 Rocket 3.6 20:58:43 10° SW 21:04:01 40° WNW 21:09:22 10° N
Resurs 01 Rocket 3.5 21:01:22 10° SSW 21:05:15 30° W 21:09:10 10° NW
SJ-11-01 4.2 21:04:41 39° SSE 21:06:26 74° ENE 21:11:09 10° N
Cosmos 2251 Rocket 4.5 21:02:21 10° N 21:06:59 29° ENE 21:07:00 29° ENE
Cosmos 1766 Rocket 3.6 21:04:56 10° N 21:09:25 81° W 21:11:30 32° S
Cosmos 2016 Rocket 4.1 21:08:49 34° SE 21:11:09 50° E 21:17:05 10° NNE
Cosmos 1269 Rocket 4.1 21:06:38 10° NNW 21:11:55 78° WSW 21:14:28 32° S
SWAS 4.3 21:08:03 10° SSW 21:12:19 81° ESE 21:16:39 10° NNE
Helios 1A 3.8 21:10:17 18° S 21:13:07 49° W 21:17:12 10° NNW
Cosmos 2297 4.1 21:12:59 10° SSW 21:18:39 66° WNW 21:24:22 10° NNE
Cosmos 1725 Rocket 4.5 21:19:16 38° ENE 21:19:16 38° ENE 21:24:20 10° NNE
ATLAS 5 CENTAUR R/B 1.6 21:14:34 10° SSW 21:19:13 80° ESE 21:24:17 10° NE
Cosmos 1953 4.0 21:16:37 10° SW 21:20:21 34° WNW 21:24:05 10° N
Cosmos 1939 Rocket 2.9 21:22:45 70° SSW 21:23:06 77° W 21:27:15 10° NNW
Cosmos-2242 3.3 21:20:40 20° SSW 21:23:30 65° W 21:27:44 10° N
Cosmos 2100 Rocket 4.0 21:19:29 10° S 21:25:48 82° W 21:32:12 10° N
SL-08 R/B 4.5 21:30:43 55° SE 21:31:45 62° E 21:38:04 10° NNE
Cosmos 2082 Rocket 2.6 21:28:54 10° NNW 21:34:28 58° WSW 21:36:28 37° SSW
Tsikada Rocket 4.3 21:28:31 10° N 21:34:07 47° ENE 21:34:07 47° ENE
Cosmos 1271 Rocket 3.7 21:35:44 38° WSW 21:36:43 47° WNW 21:40:37 10° N
Cosmos 1867 4.4 21:32:52 10° SW 21:38:08 49° NW 21:43:28 10° NNE
CZ-3B DEB 4.1 21:30:58 10° W 21:38:24 29° NW 21:42:06 12° NNE
Meteor 1-16 Rocket 4.1 21:40:07 74° ESE 21:40:20 75° E 21:46:16 10° NNE
Cosmos 1743 Rocket 3.9 21:36:39 10° N 21:40:24 62° NNW 21:40:24 62° NNW
Lacrosse 5 rocket 2.7 21:40:04 10° NW 21:42:20 32° NNW 21:42:20 32° NNW
Cosmos 1802 Rocket 4.1 21:40:57 16° SSW 21:45:52 72° W 21:52:03 10° N
USA 215 3.3 21:41:21 10° NE 21:47:52 75° NW 21:54:22 10° WSW
ARGOS 3.9 21:51:57 42° NNE 21:51:57 42° NNE 21:55:46 10° N
MetOp-A 4.3 21:52:29 64° NNE 21:52:29 64° NNE 21:57:03 10° N
Cosmos 494 Rocket 4.5 21:52:44 10° NNW 21:56:38 53° N 21:56:38 53° N
H-2A R/B 3.5 22:04:43 28° NNE 22:04:43 28° NNE 22:07:28 10° N
Lacrosse 5 4.3 22:08:35 10° WNW 22:12:04 18° NNW 22:15:20 11° NNE
CZ-3 Stage 3 3.8 21:53:24 10° W 22:12:44 40° SSW 22:13:10 40° SSW
SPOT 5 3.9 22:14:57 49° NNW 22:14:57 49° NNW 22:18:47 10° NNW
USA 267 3.5 22:20:08 57° NNE 22:20:08 57° NNE 22:26:11 10° NW
ERS-1 Rocket 4.4 22:23:24 34° W 22:23:24 34° W 22:27:34 10° NNW
Terra 4.3 22:39:22 15° N 22:39:22 15° N 22:40:14 10° N
ATLAS 5 CENTAUR R/B 4.4 23:01:17 10° WNW 23:04:37 18° NW 23:08:08 10° N
